{"data":{"norad_id":53001,"intl_designator":"2022-076R","name":"STARLINK-4190","alt_names":[],"object_type":"PAYLOAD","status":"ACTIVE","operator":null,"country":"US","launch_date":"2022-07-07","launch_site_code":"AFETR","launch_vehicle":null,"mission":null,"orbit_class":"UNKNOWN","rcs_meters":null,"size_class":null,"mass_kg":null,"dimensions":null,"purposes":["comms"],"wikipedia_slug":null,"has_3d_model":false,"image_url":null,"decayed_at":null,"tle_current":{"epoch":"2026-09-19T17:28:10.626528Z","epoch_age_seconds":135693,"freshness":"FRESH","line1":"1 53001U 22076R   26262.72790077 -.00001891  00000+0 -43325-4 0  9994","line2":"2 53001  53.1585 287.3855 0001212  77.8513 282.2625 15.35392507232355","mean_motion":15.35392507,"eccentricity":0.0001212,"inclination_deg":53.1585,"raan_deg":287.3855,"arg_perigee_deg":77.8513,"mean_anomaly_deg":282.2625,"bstar":-4.3325e-5,"rev_number":23235,"period_min":93.787093100618,"perigee_km":458.92613694011,"apogee_km":460.58364193411,"semimajor_km":6837.8918894371,"source":"CELESTRAK","updated_at":"2026-09-20T09:00:40.141535Z"}}}